Location: *
(49.0044°N, 9.5056°E)
Time: 05:49:46
(UTC+00:00)

In-Cosmos 22 - Visible Passes

Search period start: 14 December 2019 00:00
Search period end: 24 December 2019 00:00
Orbit: 785 x 877 km, 81.2° (Epoch: 13 December)

Date Brightness Start Highest point End Pass type
(mag) Time Alt. Az. Time Alt. Az. Time Alt. Az.
14 Dec 6.8 05:43:20 10° NE 05:44:23 10° NE 05:45:25 10° ENE visible
17 Dec 5.7 06:29:16 10° N 06:34:12 34° ENE 06:39:02 10° SE visible
18 Dec 5.9 06:11:28 10° N 06:16:10 29° ENE 06:20:45 10° SE visible
19 Dec 6.2 05:53:43 10° N 05:58:06 24° ENE 06:02:24 10° ESE visible
20 Dec 6.4 05:36:00 10° NNE 05:40:01 21° ENE 05:43:58 10° ESE visible
21 Dec 6.6 05:18:20 10° NNE 05:21:55 18° ENE 05:25:26 10° E visible
22 Dec 6.7 05:00:48 10° NNE 05:03:48 15° ENE 05:06:47 10° E visible
23 Dec 6.8 04:43:23 10° NNE 04:45:40 13° NE 04:47:55 10° E visible
23 Dec 4.4 06:23:53 10° N 06:29:16 72° ENE 06:34:32 10° SSE visible
